Peoria, IL

3:03 PM CST on November 16, 2019 (GMT -0600)
Greater Peoria Regional

Weather History for KPIA - September, 2019

Change the Weather History Date:

Thursday, September 5, 2019

  Actual Average Record
Temperature  
Mean Temperature 65 °F 70 °F  
Max Temperature 75 °F 81 °F 104 °F (1899)
Min Temperature 54 °F 60 °F 45 °F (1962)
Degree Days  
Heating Degree Days 0 1  
Month to date heating degree days 0 4  
Since 1 July heating degree days 0 10  
Cooling Degree Days 0 6  
Month to date cooling degree days 24 33  
Year to date cooling degree days 1006 940  
Growing Degree Days 15 (Base 50)    
Moisture  
Dew Point 57 °F    
Average Humidity 73    
Maximum Humidity 93    
Minimum Humidity 54    
Precipitation  
Precipitation 0.00 in 0.12 in 1.65 in (1898)
Month to date precipitation 0.62 0.56  
Year to date precipitation 34.14 25.51  
Snow  
Snow 0.00 in 0.00 in 0.00 in ()
Month to date snowfall 0.0 0.0  
Since 1 July snowfall 0.0 0.0  
Since 1 September snowfall 0.0 0.0  
Snow Depth 0.00 in    
Sea Level Pressure  
Sea Level Pressure 30.11 in    
Wind  
Wind Speed 3 mph ()    
Max Wind Speed 10 mph    
Max Gust Speed 14 mph    
Visibility 10.0 miles    
Events      
T = Trace of Precipitation, MM = Missing Value Source: Averaged Metar Reports

Daily Weather History Graph

Daily Weather History Graph

Search for Another Location

Airport or City:

Astronomy

Sep. 05, 2019 Rise Set
Actual Time 6:29 AM CDT 7:24 PM CDT
Civil Twilight 6:01 AM CDT 7:52 PM CDT
Nautical Twilight 5:28 AM CDT 8:25 PM CDT
Astronomical Twilight 4:54 AM CDT 8:59 PM CDT
Moon 1:38 PM CDT (9/5) 11:38 PM CDT (9/5)
Length of Visible Light 13h 50m
Length of Day
12h 55m
Waxing Crescent, 45% of the Moon is Illuminated
Sep 5
Waxing Crescent
Sep 5
First Quarter
Sep 13
Full
Sep 21
Last Quarter
Sep 28
New

Hourly Weather History & Observations

Time (CDT) Temp. Dew Point Humidity Pressure Visibility Wind Dir Wind Speed Gust Speed Precip Events Conditions
12:54 AM 60.1 °F 55.0 °F 83% 30.14 in 10.0 mi ENE 3.5 mph - N/A   Clear
1:54 AM 57.9 °F 55.0 °F 90% 30.14 in 10.0 mi Calm Calm - N/A   Clear
2:54 AM 57.0 °F 54.0 °F 89% 30.15 in 10.0 mi Calm Calm - N/A   Clear
3:54 AM 55.9 °F 54.0 °F 93% 30.15 in 10.0 mi NNE 3.5 mph - N/A   Clear
4:54 AM 55.9 °F 53.1 °F 90% 30.16 in 10.0 mi Calm Calm - N/A   Clear
5:54 AM 55.0 °F 53.1 °F 93% 30.17 in 9.0 mi ENE 3.5 mph - N/A   Clear
6:54 AM 55.0 °F 53.1 °F 93% 30.18 in 10.0 mi East 4.6 mph - N/A   Clear
7:54 AM 60.1 °F 55.0 °F 83% 30.19 in 10.0 mi East 3.5 mph - N/A   Clear
8:54 AM 64.0 °F 55.9 °F 75% 30.20 in 10.0 mi Variable 4.6 mph - N/A   Clear
9:54 AM 66.0 °F 54.0 °F 65% 30.20 in 10.0 mi SE 8.1 mph - N/A   Partly Cloudy
10:54 AM 68.0 °F 55.9 °F 65% 30.18 in 10.0 mi SE 6.9 mph - N/A   Partly Cloudy
11:54 AM 70.0 °F 57.0 °F 63% 30.17 in 10.0 mi North - - N/A   Clear
12:54 PM 71.1 °F 57.0 °F 61% 30.14 in 10.0 mi South 3.5 mph - N/A   Clear
1:54 PM 73.0 °F 57.9 °F 59% 30.13 in 10.0 mi Calm Calm - N/A   Clear
2:54 PM 75.0 °F 57.9 °F 55% 30.11 in 10.0 mi SSE 3.5 mph - N/A   Clear
3:54 PM 75.0 °F 57.9 °F 55% 30.08 in 10.0 mi SSE 4.6 mph - N/A   Clear
4:54 PM 75.9 °F 59.0 °F 56% 30.06 in 10.0 mi SSE 9.2 mph - N/A   Clear
5:54 PM 75.0 °F 57.9 °F 55% 30.05 in 10.0 mi South 6.9 mph - N/A   Clear
6:54 PM 73.0 °F 59.0 °F 61% 30.05 in 10.0 mi South 4.6 mph - N/A   Clear
7:54 PM 70.0 °F 59.0 °F 68% 30.04 in 10.0 mi SSE 4.6 mph - N/A   Clear
8:54 PM 69.1 °F 59.0 °F 70% 30.01 in 10.0 mi SSE 6.9 mph - N/A   Clear
9:54 PM 68.0 °F 59.0 °F 73% 30.01 in 10.0 mi South 4.6 mph - N/A   Clear
10:54 PM 66.9 °F 59.0 °F 76% 30.01 in 10.0 mi SSW 6.9 mph - N/A   Clear
11:54 PM 66.0 °F 59.0 °F 78% 30.00 in 10.0 mi South 6.9 mph - N/A   Partly Cloudy